Orbital Elements at Epoch 2459000.5 (2020-May-31.0) TDB
Reference: JPL 23 (heliocentric ecliptic J2000)
Element | Value | Uncertainty (1-sigma) | Units |
e | .0834292495506751 | 4.5715e-08 | |
a | 2.731027070369489 | 1.4601e-08 | au |
q | 2.503179531385983 | 1.2526e-07 | au |
i | 12.42002895563652 | 4.9246e-06 | deg |
node | 174.1910521113704 | 1.9046e-05 | deg |
peri | 27.15677959290486 | 3.1503e-05 | deg |
M | 235.3709778846392 | 2.7153e-05 | deg |
tp | 2459571.195070086357 (2021-Dec-22.69507009) | 0.00012653 | TDB |
period | 1648.494241099934 4.51 | 1.322e-05 3.619e-08 | d yr |
n | .2183811086654419 | 1.7513e-09 | deg/d |
Q | 2.958874609352994 | 1.5819e-08 | au |
|
| | Orbit Determination Parameters
Additional Information
|